TimePDT,TemperatureF,Dew PointF,Humidity,Sea Level PressureIn,VisibilityMPH,Wind Direction,Wind SpeedMPH,Gust SpeedMPH,PrecipitationIn,Events,Conditions,WindDirDegrees,DateUTC
12:53 AM,81.0,57.0,44,29.81,10.0,ESE,4.6,-,N/A,,Clear,110,2013-09-07 07:53:00
1:53 AM,79.0,57.0,47,29.80,10.0,Calm,Calm,-,N/A,,Clear,0,2013-09-07 08:53:00
2:53 AM,80.1,51.1,36,29.79,10.0,Calm,Calm,-,N/A,,Clear,0,2013-09-07 09:53:00
3:53 AM,78.1,52.0,40,29.80,10.0,NW,3.5,-,N/A,,Clear,310,2013-09-07 10:53:00
4:53 AM,78.1,48.0,35,29.79,10.0,WNW,5.8,-,N/A,,Clear,300,2013-09-07 11:53:00
5:53 AM,77.0,46.0,33,29.81,10.0,Calm,Calm,-,N/A,,Clear,0,2013-09-07 12:53:00
6:53 AM,75.9,50.0,40,29.82,10.0,Calm,Calm,-,N/A,,Clear,0,2013-09-07 13:53:00
7:53 AM,80.1,48.0,32,29.83,10.0,Calm,Calm,-,N/A,,Clear,0,2013-09-07 14:53:00
8:53 AM,86.0,48.0,27,29.83,10.0,Calm,Calm,-,N/A,,Clear,0,2013-09-07 15:53:00
9:53 AM,91.9,48.9,23,29.83,10.0,Calm,Calm,-,N/A,,Clear,0,2013-09-07 16:53:00
10:53 AM,96.1,53.1,23,29.83,10.0,South,6.9,-,N/A,,Clear,180,2013-09-07 17:53:00
11:53 AM,98.1,53.1,22,29.82,10.0,Variable,3.5,-,N/A,,Clear,0,2013-09-07 18:53:00
12:53 PM,100.0,51.1,19,29.80,10.0,SSE,6.9,-,N/A,,Clear,150,2013-09-07 19:53:00
1:53 PM,102.0,44.1,14,29.77,10.0,SSE,11.5,-,N/A,,Clear,160,2013-09-07 20:53:00
2:53 PM,100.0,46.0,16,29.75,10.0,SSE,12.7,-,N/A,,Clear,150,2013-09-07 21:53:00
3:53 PM,97.0,50.0,20,29.75,10.0,SSE,11.5,-,N/A,,Clear,150,2013-09-07 22:53:00
4:53 PM,95.0,46.0,19,29.75,10.0,SSE,10.4,-,N/A,,Clear,160,2013-09-07 23:53:00
5:53 PM,93.0,42.1,17,29.76,10.0,ESE,10.4,-,N/A,,Clear,120,2013-09-08 00:53:00
6:53 PM,86.0,48.9,28,29.78,10.0,ESE,11.5,18.4,N/A,,Clear,110,2013-09-08 01:53:00
7:53 PM,82.9,53.1,36,29.79,10.0,SE,8.1,-,N/A,,Clear,130,2013-09-08 02:53:00
8:53 PM,81.0,55.0,41,29.81,10.0,ESE,3.5,-,N/A,,Clear,120,2013-09-08 03:53:00
9:53 PM,81.0,55.0,41,29.81,10.0,Calm,Calm,-,N/A,,Clear,0,2013-09-08 04:53:00
10:53 PM,80.1,55.9,43,29.81,10.0,Calm,Calm,-,N/A,,Clear,0,2013-09-08 05:53:00
11:53 PM,78.1,59.0,52,29.81,10.0,ESE,3.5,-,N/A,,Clear,120,2013-09-08 06:53:00